CW2674 Weather Reports


Display with metric or nautical units.
time (UTC)temp
F
wind
direction
speed
MPH
gust
MPH
rain 1hr
in
rain 24hr
in
rain mn
in
humidity
%
barometer
mb
20260906214405 106 243 7.0 12.0 0.00 0.00 0.00 22 1008.1
20260906213405 107 177 3.0 12.0 0.00 0.00 0.00 22 1008.3
20260906210406 106 313 3.0 8.0 0.00 0.00 0.00 21 1008.6
20260906203404 105 223 4.0 13.0 0.00 0.00 0.00 24 1008.9
20260906201403 104 300 5.0 5.0 0.00 0.00 0.00 23 1009.1
20260906200404 103 227 4.0 9.0 0.00 0.00 0.00 25 1009.2
20260906194404 104 274 7.0 7.0 0.00 0.00 0.00 23 1009.3
20260906193406 104 320 4.0 9.0 0.00 0.00 0.00 24 1009.5
20260906191405 102 294 2.0 5.0 0.00 0.00 0.00 24 1009.8
20260906190404 102 295 3.0 12.0 0.00 0.00 0.00 25 1009.9
20260906184406 102 303 4.0 10.0 0.00 0.00 0.00 26 1010.2
20260906183404 101 304 2.0 9.0 0.00 0.00 0.00 25 1010.4
20260906181404 100 333 1.0 9.0 0.00 0.00 0.00 27 1010.7
20260906180404 99 298 3.0 5.0 0.00 0.00 0.00 29 1010.9
20260906174404 98 79 2.0 3.0 0.00 0.00 0.00 29 1011.0
20260906173404 98 50 2.0 5.0 0.00 0.00 0.00 32 1011.1
20260906170404 96 306 3.0 3.0 0.00 0.00 0.00 32 1011.3
20260906164405 94 306 0.0 2.0 0.00 0.00 0.00 33 1011.3
20260906163404 93 306 2.0 3.0 0.00 0.00 0.00 33 1011.2
20260906161405 92 306 2.0 3.0 0.00 0.00 0.00 36 1011.2
20260906154404 89 306 2.0 3.0 0.00 0.00 0.00 38 1011.5
20260906153403 89 306 0.0 3.0 0.00 0.00 0.00 38 1011.6
20260906151404 86 306 0.0 2.0 0.00 0.00 0.00 39 1011.5
20260906150405 85 306 1.0 2.0 0.00 0.00 0.00 40 1011.4
20260906144404 82 306 1.0 2.0 0.00 0.00 0.00 43 1011.3
20260906143405 83 306 0.0 1.0 0.00 0.00 0.00 45 1011.3
20260906141404 79 306 0.0 0.0 0.00 0.00 0.00 52 1011.1
20260906140404 79 306 1.0 1.0 0.00 0.00 0.00 51 1011.0
20260906134403 79 0 0.0 0.0 0.00 0.00 0.00 49 1010.8
20260906133405 79 0 0.0 0.0 0.00 0.00 0.00 48 1010.8
20260906131406 80 0 0.0 0.0 0.00 0.00 0.00 48 1010.6
20260906124405 80 307 0.0 0.0 0.00 0.00 0.00 46 1010.3
20260906123404 81 307 1.0 1.0 0.00 0.00 0.00 46 1010.3
20260906070407 87 306 0.0 1.0 0.00 0.00 0.00 38 1010.8
20260906063404 87 306 0.0 2.0 0.00 0.00 0.00 38 1010.8
20260906061405 87 306 1.0 2.0 0.00 0.00 0.00 36 1010.6
20260906060406 88 306 0.0 1.0 0.00 0.00 0.00 36 1010.7
20260906054404 88 306 0.0 0.0 0.00 0.00 0.00 36 1010.6
20260906053404 88 306 0.0 0.0 0.00 0.00 0.00 36 1010.6
20260906051404 88 306 0.0 0.0 0.00 0.00 0.00 36 1010.8
20260906050404 89 306 0.0 0.0 0.00 0.00 0.00 36 1010.7
20260906044405 90 306 0.0 0.0 0.00 0.00 0.00 35 1010.7
20260906043405 90 306 0.0 0.0 0.00 0.00 0.00 34 1010.8
20260906041404 90 306 0.0 0.0 0.00 0.00 0.00 34 1010.8
20260906040406 91 306 0.0 1.0 0.00 0.00 0.00 33 1011.0
20260906034405 91 306 0.0 0.0 0.00 0.00 0.00 32 1010.7
20260906031408 92 306 0.0 0.0 0.00 0.00 0.00 32 1010.2
20260906024405 94 306 1.0 1.0 0.00 0.00 0.00 29 1010.1
20260906023406 94 306 2.0 5.0 0.00 0.00 0.00 29 1010.1
20260906021404 95 306 2.0 5.0 0.00 0.00 0.00 28 1010.1
20260906013404 97 319 5.0 9.0 0.00 0.00 0.00 27 1010.2
20260906011407 97 311 3.0 6.0 0.00 0.00 0.00 26 1010.3
20260906010404 98 305 6.0 12.0 0.00 0.00 0.00 26 1010.4
20260906004404 99 292 9.0 10.0 0.00 0.00 0.00 25 1010.2
20260906003403 99 318 7.0 12.0 0.00 0.00 0.00 25 1010.2
20260906001405 102 323 7.0 9.0 0.00 0.00 0.00 24 1010.1
20260905234403 100 297 5.0 7.0 0.00 0.00 0.00 25 1010.1
20260905233406 100 285 3.0 10.0 0.00 0.00 0.00 24 1010.1
20260905231404 102 279 5.0 9.0 0.00 0.00 0.00 24 1010.2
20260905224404 101 265 9.0 12.0 0.00 0.00 0.00 24 1010.4
20260905223404 102 266 5.0 10.0 0.00 0.00 0.00 23 1010.4
20260905220403 101 279 3.0 12.0 0.00 0.00 0.00 24 1010.9